Tracking 29892 objects as of 21-Nov-2024
HD Live streaming from Space Station
objects crossing your sky now

STARLINK-31707

Track STARLINK-31707 now!
10-day predictions
STARLINK-31707 is classified as:


NORAD ID: 59736
Int'l Code: 2024-090G
Perigee: 449.9 km
Apogee: 452.5 km
Inclination: 43.0 °
Period: 93.5 minutes
Semi major axis: 6822 km
RCS: Unknown
Launch date: May 13, 2024
Source: United States (US)
Launch site: AIR FORCE EASTERN TEST RANGE (AFETR)
Your satellite tracking list
Your tracking list is empty




NASA's NSSDC Master Catalog

Two Line Element Set (TLE):
1 59736U 24090G   24325.13058062  .00000135  00000-0  10510-4 0  9996
2 59736  43.0035 353.8457 0001934 266.4032  93.6603 15.40697740 30746
Source of the keplerian elements: AFSPC